Home   Weather   Portsmouth   Past weeks

Flag for United Kingdom Past Weather in Portsmouth, England, United Kingdom — Yesterday and Last 2 Weeks

Now
46 °F

Scattered showers. Scattered clouds.


Feels Like: 40 °F
Forecast: 37 / 51 °F
Wind: 15 mph from North

Location: Southampton / Weather Centre

Current Time: Apr 26, 2017 at 4:48:55 pm

Latest Report: Apr 26, 2017 at 4:20 pm


Visibility: N/A

Pressure: 30.07 "Hg

Humidity: 53%

Dew Point: 30 °F

Location of PortsmouthLocation

Past Weather in Portsmouth — Graph

°F

Portsmouth Temperature Yesterday

Maximum temperature yesterday: 50 °F (at 4:50 pm)
Minimum temperature yesterday: 30 °F (at 5:50 am)
Average temperature yesterday: 42 °F

High & Low Weather Summary for the Past Weeks

 TemperatureHumidityPressure
High59 °F (Apr 21, 4:20 pm)100% (Apr 13, 6:50 am)30.63 "Hg (Apr 13, 6:50 am)
Low30 °F (Apr 25, 5:50 am)37% (Apr 25, 2:20 pm)29.89 "Hg (Apr 24, 6:50 pm)
Average49 °F65%30.24 "Hg
* Reported Apr 11 3:20 pm — Apr 26 3:20 pm, Portsmouth, Weather by CustomWeather, © 2017

Note: Actual official high and low records may vary slightly from our data, if they occured in-between our weather recording intervals... More about our weather records

Advertising

Portsmouth Weather History for the Previous 24 Hours

Scroll right to see more
 ConditionsComfort  
Time TempWeatherWind HumidityBarometerVisibility
3:20 pm
Wed, Apr 26
48 °FScattered showers. Scattered clouds.15 mph50%30.07 "HgN/A
2:50 pm48 °FScattered showers. Scattered clouds.13 mph50%30.07 "HgN/A
2:20 pm48 °FScattered showers. Scattered clouds.9 mph46%30.07 "HgN/A
1:50 pm46 °FScattered showers. Scattered clouds.14 mph53%30.07 "HgN/A
1:20 pm46 °FScattered clouds.13 mph53%30.07 "HgN/A
12:50 pm48 °FScattered clouds.13 mph50%30.07 "HgN/A
12:20 pm46 °FScattered clouds.13 mph57%30.07 "HgN/A
11:50 am46 °FScattered clouds.13 mph62%30.07 "HgN/A
11:20 am45 °FPartly sunny.13 mph61%30.07 "HgN/A
10:50 am43 °FPartly sunny.13 mph71%30.07 "HgN/A
10:20 am43 °FPartly sunny.13 mph66%30.07 "HgN/A
9:50 am41 °FPartly sunny.12 mph76%30.07 "HgN/A
9:20 am41 °FPartly sunny.13 mph81%30.07 "HgN/A
8:50 am39 °FPartly sunny.10 mph81%30.07 "HgN/A
8:20 am39 °FPartly sunny.9 mph81%30.07 "HgN/A
7:50 am37 °FScattered clouds.8 mph87%30.07 "HgN/A
7:20 am36 °FScattered clouds.5 mph93%30.07 "HgN/A
6:50 am34 °FScattered clouds.6 mph93%30.04 "HgN/A
6:20 am32 °FPartly sunny.5 mph100%30.04 "HgN/A
5:50 am32 °FFog.No wind93%30.04 "HgN/A
11:20 pm
Tue, Apr 25
34 °FPassing clouds.2 mph100%30.01 "HgN/A
10:50 pm36 °FPassing clouds.3 mph93%30.01 "HgN/A
10:20 pm37 °FPassing clouds.6 mph87%30.01 "HgN/A
9:50 pm36 °FPassing clouds.6 mph93%30.01 "HgN/A
9:20 pm37 °FPassing clouds.9 mph87%30.01 "HgN/A
8:50 pm37 °FRain showers. Passing clouds.20 mph87%30.01 "Hg5 mi
8:20 pm39 °FSprinkles. Passing clouds.18 mph75%29.98 "HgN/A
7:50 pm43 °FPassing clouds.10 mph57%29.95 "HgN/A
7:20 pm45 °FPassing clouds.12 mph49%29.95 "HgN/A
6:50 pm46 °FPassing clouds.14 mph43%29.95 "HgN/A
6:20 pm46 °FPassing clouds.12 mph46%29.95 "HgN/A
5:50 pm46 °FScattered showers. Passing clouds.13 mph50%29.95 "HgN/A
5:20 pm48 °FScattered showers. Passing clouds.15 mph43%29.95 "HgN/A
4:50 pm50 °FScattered showers. Passing clouds.9 mph37%29.92 "HgN/A
Weather by CustomWeather, © 2017

See weather overviewHow to use our weather pages